• In Latvia
  • List of Countries
  • For 7 days
  • Water Temperature
  • Satellite Maps
  • Weather Map
  • Weather Widgets
  • user-avatar
    Login

    Hourly Weather Preobrazhenskoe

    Today, 17 July, Tuesday

    Time Temperature Precipitation Wind Pressure Humidity
    00:00 +22°C° 0.4 mm 5 mps 750 mmHg 75%
    01:00 +22°C° 0.1 mm 5 mps 750 mmHg 75%
    02:00 +22°C° 0.1 mm 5 mps 750 mmHg 75%
    03:00 +22°C° 0.1 mm 6 mps 750 mmHg 75%
    04:00 +22°C° 0 mm 5 mps 750 mmHg 75%
    05:00 +22°C° 0 mm 5 mps 750 mmHg 75%
    06:00 +22°C° 0 mm 5 mps 750 mmHg 75%
    07:00 +23°C° 0.1 mm 6 mps 750 mmHg 69%
    08:00 +26°C° 0.1 mm 6 mps 750 mmHg 64%
    09:00 +27°C° 0.1 mm 7 mps 750 mmHg 58%
    10:00 +28°C° 0.3 mm 7 mps 750 mmHg 56%
    11:00 +29°C° 0.3 mm 7 mps 750 mmHg 53%
    12:00 +31°C° 0.3 mm 8 mps 750 mmHg 51%
    13:00 +31°C° 0.3 mm 8 mps 750 mmHg 50%
    14:00 +31°C° 0.3 mm 8 mps 750 mmHg 50%
    15:00 +31°C° 0.3 mm 8 mps 750 mmHg 49%
    16:00 +29°C° 0 mm 8 mps 750 mmHg 51%
    17:00 +29°C° 0 mm 7 mps 750 mmHg 53%
    18:00 +29°C° 0 mm 7 mps 750 mmHg 54%
    19:00 +27°C° 0 mm 6 mps 750 mmHg 60%
    20:00 +26°C° 0 mm 6 mps 751 mmHg 65%
    21:00 +25°C° 0 mm 5 mps 751 mmHg 70%
    22:00 +23°C° 0 mm 5 mps 751 mmHg 72%
    23:00 +23°C° 0 mm 5 mps 751 mmHg 74%

    Tomorrow, 18 July, Wednesday

    Time Temperature Precipitation Wind Pressure Humidity
    00:00 +22°C° 0 mm 4 mps 751 mmHg 76%
    01:00 +22°C° 0 mm 4 mps 751 mmHg 77%
    02:00 +22°C° 0 mm 4 mps 751 mmHg 78%
    03:00 +21°C° 0 mm 4 mps 751 mmHg 80%
    04:00 +21°C° 0.4 mm 4 mps 751 mmHg 80%
    05:00 +21°C° 0.4 mm 3 mps 751 mmHg 81%
    06:00 +21°C° 0.4 mm 3 mps 751 mmHg 82%
    07:00 +24°C° 0.4 mm 3 mps 751 mmHg 75%
    08:00 +26°C° 0.4 mm 4 mps 750 mmHg 68%
    09:00 +28°C° 0.4 mm 4 mps 750 mmHg 60%
    10:00 +29°C° 0.2 mm 4 mps 750 mmHg 55%
    11:00 +30°C° 0.2 mm 4 mps 750 mmHg 51%
    12:00 +32°C° 0.2 mm 4 mps 750 mmHg 46%
    13:00 +33°C° 0 mm 4 mps 750 mmHg 44%
    14:00 +33°C° 0 mm 4 mps 750 mmHg 43%
    15:00 +33°C° 0 mm 3 mps 750 mmHg 41%
    16:00 +33°C° 0 mm 3 mps 749 mmHg 43%
    17:00 +33°C° 0 mm 3 mps 749 mmHg 44%
    18:00 +31°C° 0 mm 2 mps 749 mmHg 46%
    19:00 +30°C° 0 mm 2 mps 749 mmHg 51%
    20:00 +28°C° 0 mm 1 mps 750 mmHg 56%
    21:00 +26°C° 0 mm 1 mps 750 mmHg 61%
    22:00 +25°C° 0.3 mm 1 mps 750 mmHg 66%
    23:00 +24°C° 0.3 mm 1 mps 750 mmHg 70%

    Day after tomorrow, 19 July, Thursday

    Time Temperature Precipitation Wind Pressure Humidity
    00:00 +24°C° 0.3 mm 1 mps 750 mmHg 75%
    01:00 +23°C° 0.1 mm 1 mps 750 mmHg 77%
    02:00 +21°C° 0.1 mm 0 mps 750 mmHg 79%
    03:00 +21°C° 0.1 mm 0 mps 750 mmHg 80%
    04:00 +21°C° 0 mm 0 mps 750 mmHg 81%
    05:00 +21°C° 0 mm 0 mps 750 mmHg 81%
    06:00 +23°C° 0 mm 1 mps 750 mmHg 81%
    07:00 +25°C° 0 mm 1 mps 750 mmHg 73%
    08:00 +27°C° 0 mm 1 mps 750 mmHg 66%
    09:00 +29°C° 0 mm 1 mps 750 mmHg 59%
    10:00 +30°C° 0 mm 1 mps 750 mmHg 52%
    11:00 +32°C° 0 mm 1 mps 750 mmHg 45%
    12:00 +33°C° 0 mm 1 mps 750 mmHg 39%
    13:00 +35°C° 0 mm 2 mps 750 mmHg 36%
    14:00 +35°C° 0 mm 2 mps 750 mmHg 34%
    15:00 +36°C° 0 mm 2 mps 750 mmHg 32%
    16:00 +36°C° 0 mm 2 mps 750 mmHg 34%
    17:00 +35°C° 0 mm 2 mps 750 mmHg 36%
    18:00 +35°C° 0 mm 2 mps 750 mmHg 38%
    19:00 +32°C° 0 mm 2 mps 750 mmHg 44%
    20:00 +30°C° 0 mm 2 mps 750 mmHg 50%
    21:00 +27°C° 0 mm 2 mps 750 mmHg 56%
    22:00 +27°C° 0 mm 2 mps 750 mmHg 60%
    23:00 +26°C° 0 mm 2 mps 750 mmHg 64%

    20 July, Friday

    Time Temperature Precipitation Wind Pressure Humidity
    00:00 +25°C° 0 mm 2 mps 750 mmHg 69%
    01:00 +24°C° 0 mm 2 mps 750 mmHg 71%
    02:00 +24°C° 0 mm 2 mps 750 mmHg 73%
    03:00 +23°C° 0 mm 1 mps 751 mmHg 76%
    04:00 +23°C° 0 mm 1 mps 751 mmHg 76%
    05:00 +23°C° 0 mm 1 mps 751 mmHg 77%
    06:00 +23°C° 0 mm 1 mps 751 mmHg 78%
    07:00 +25°C° 0 mm 1 mps 751 mmHg 71%
    08:00 +27°C° 0 mm 1 mps 751 mmHg 63%
    09:00 +29°C° 0 mm 1 mps 751 mmHg 55%
    10:00 +31°C° 0 mm 1 mps 751 mmHg 50%
    11:00 +33°C° 0 mm 1 mps 751 mmHg 45%
    12:00 +34°C° 0 mm 1 mps 751 mmHg 40%
    13:00 +35°C° 0 mm 1 mps 750 mmHg 37%
    14:00 +36°C° 0 mm 2 mps 750 mmHg 35%
    15:00 +37°C° 0 mm 2 mps 750 mmHg 32%
    16:00 +37°C° 0 mm 2 mps 750 mmHg 33%
    17:00 +36°C° 0 mm 2 mps 750 mmHg 34%
    18:00 +36°C° 0 mm 2 mps 750 mmHg 35%
    19:00 +34°C° 0.1 mm 2 mps 750 mmHg 41%
    20:00 +30°C° 0.1 mm 2 mps 750 mmHg 48%
    21:00 +28°C° 0.1 mm 2 mps 751 mmHg 54%
    22:00 +27°C° 0.1 mm 2 mps 751 mmHg 58%
    23:00 +26°C° 0.1 mm 2 mps 751 mmHg 62%

    21 July, Saturday

    Time Temperature Precipitation Wind Pressure Humidity
    00:00 +25°C° 0.1 mm 2 mps 751 mmHg 66%
    01:00 +24°C° 0.2 mm 2 mps 751 mmHg 70%
    02:00 +24°C° 0.2 mm 2 mps 751 mmHg 74%
    03:00 +23°C° 0.2 mm 2 mps 751 mmHg 77%
    04:00 +23°C° 0.5 mm 2 mps 751 mmHg 79%
    05:00 +23°C° 0.5 mm 2 mps 751 mmHg 81%
    06:00 +23°C° 0.5 mm 2 mps 752 mmHg 82%
    07:00 +25°C° 0.1 mm 1 mps 752 mmHg 74%
    08:00 +27°C° 0.1 mm 1 mps 752 mmHg 66%
    09:00 +29°C° 0.1 mm 1 mps 752 mmHg 58%
    10:00 +31°C° 0 mm 1 mps 752 mmHg 53%
    11:00 +33°C° 0 mm 1 mps 751 mmHg 47%
    12:00 +34°C° 0 mm 1 mps 751 mmHg 41%
    13:00 +35°C° 0 mm 1 mps 751 mmHg 39%
    14:00 +36°C° 0 mm 1 mps 751 mmHg 37%
    15:00 +36°C° 0 mm 1 mps 750 mmHg 35%
    16:00 +36°C° 0 mm 1 mps 750 mmHg 37%
    17:00 +35°C° 0 mm 1 mps 750 mmHg 40%
    18:00 +34°C° 0 mm 1 mps 751 mmHg 42%
    19:00 +34°C° 0 mm 2 mps 751 mmHg 47%
    20:00 +31°C° 0 mm 2 mps 751 mmHg 52%
    21:00 +29°C° 0 mm 2 mps 751 mmHg 57%
    22:00 +28°C° 0.2 mm 2 mps 751 mmHg 60%
    23:00 +27°C° 0.2 mm 2 mps 751 mmHg 64%

    22 July, Sunday

    Time Temperature Precipitation Wind Pressure Humidity
    00:00 +26°C° 0.2 mm 2 mps 751 mmHg 68%
    01:00 +26°C° 0.1 mm 2 mps 751 mmHg 70%
    02:00 +25°C° 0.2 mm 2 mps 751 mmHg 72%
    03:00 +24°C° 0.2 mm 1 mps 751 mmHg 75%
    04:00 +24°C° 0.1 mm 1 mps 751 mmHg 75%
    05:00 +24°C° 0.1 mm 1 mps 751 mmHg 76%
    06:00 +24°C° 0.1 mm 1 mps 751 mmHg 76%
    07:00 +26°C° 0.1 mm 1 mps 751 mmHg 70%
    08:00 +28°C° 0.1 mm 1 mps 751 mmHg 63%
    09:00 +30°C° 0.1 mm 1 mps 751 mmHg 56%
    10:00 +32°C° 0 mm 1 mps 751 mmHg 51%
    11:00 +34°C° 0 mm 1 mps 750 mmHg 46%
    12:00 +35°C° 0 mm 1 mps 750 mmHg 41%
    13:00 +35°C° 0 mm 1 mps 750 mmHg 40%
    14:00 +36°C° 0 mm 2 mps 750 mmHg 40%
    15:00 +36°C° 0 mm 2 mps 750 mmHg 39%
    16:00 +36°C° 0 mm 2 mps 750 mmHg 42%
    17:00 +35°C° 0 mm 2 mps 750 mmHg 45%
    18:00 +34°C° 0 mm 2 mps 750 mmHg 48%
    19:00 +32°C° 0.1 mm 2 mps 750 mmHg 53%
    20:00 +30°C° 0.1 mm 2 mps 750 mmHg 58%
    21:00 +29°C° 0.1 mm 2 mps 750 mmHg 63%
    22:00 +28°C° 0 mm 2 mps 750 mmHg 66%
    23:00 +27°C° 0 mm 1 mps 750 mmHg 69%
    Show more